User: anonymous   Login
Location: Croissy-Beaubourg
(48.8283°N, 2.6696°E)
Time: 11:26:01
(UTC+00:00)
Language:

DMSP 5D-3 F17 DEB - Orbit

View from above orbital plane
View from above orbital plane
View from above satellite
View from above satellite

Ground track
Ground track

The orbit data is extracted from the following two-line orbital elements,

1 29637U 06050BV  22228.85273762  .00001745  00000-0  73267-3 0  9999
2 29637  98.6029 265.6821 0006932 308.2733  51.7824 14.27165524814332
Epoch (UTC): 16 August 2022 20:27:56
Eccentricity: 0.0006932
inclination: 98.6029°
perigee height: 796 km
apogee height: 806 km
right ascension of ascending node: 265.6821°
argument of perigee: 308.2733°
revolutions per day: 14.27165524
mean anomaly at epoch: 51.7824°
orbit number at epoch: 81433

The dashed part of the orbit path shows where the satellite is in the earth's shadow,  

DLR